CYQXCYJT

Guest
Details From CYQX - Gander Intl
To CYJT - Stephenville
Flight Number -
Tags Generated
Created
Modified
Stats Distance 160 nm / 296 km
Max Altitude 0 ft / 0 m
Waypoints 2
Social Downloads 1
Likes 0
Share VATSIM

Download

Looking for another format? Having issues loading an existing format? Contact us
Advertisement - Login to hide

Notes

Generated

Route

CYQX CYJT

ID Type Via Altitude Latitude Longitude Leg Dist Tot Dist Heading (true) Name
O CYQX APT - 0 ft / 0 m 48.94339˚ -54.56803˚ - 0 nm - GANDER INTL
O CYJT APT - 0 ft / 0 m 48.53389˚ -58.55250˚ 159 nm 159 nm 263° / 260° -

Altitude Profile

Advertisement - Login to hide

CYQX

Details ICAO CYQX (YQX)
Name GANDER INTL
Region Canada
Timezone America/St_Johns (UTC-2.5)
Stats Elevation 496 ft / 151 m (AMSL)
Location 48.942962° -54.565864°
Runways 3
Magnetic Variation 18.910° W

METAR

CYQX 250400Z 32015KT 1/8SM R03/2800V4500FT/D FG VV002 00/M00 A2990 RMK FG8 SLP130

Decode

TAF

TAF AMD CYQX 250335Z 2503/2524 33010G20KT 1/4SM -DZ FG OVC002 TEMPO 2503/2515 3/4SM BR OVC004 FM251500 34012KT 6SM BR OVC010 TEMPO 2515/2521 4SM -DZ BR OVC005 FM252100 36010KT P6SM SCT012 RMK NXT FCST BY 250600Z

Decode

Departure Runways

ID Width Length Bearing (true) Bearing (mag) Surface Threshold Offset Overrun Length
03 200 ft / 61 m 10,230 ft / 3,118 m 10.93° 29.84° Asphalt 0 ft / 0 m 200 ft / 61 m
09 50 ft / 15 m 1,874 ft / 571 m 62.63° 81.54° Asphalt 0 ft / 0 m 75 ft / 23 m
13 200 ft / 61 m 8,855 ft / 2,699 m 107.30° 126.21° Asphalt 0 ft / 0 m 200 ft / 61 m
21 200 ft / 61 m 10,230 ft / 3,118 m 190.94° 209.85° Asphalt 0 ft / 0 m 199 ft / 61 m
27 50 ft / 15 m 1,874 ft / 571 m 242.64° 261.55° Asphalt 0 ft / 0 m 250 ft / 76 m
31 200 ft / 61 m 8,855 ft / 2,699 m 287.33° 306.24° Asphalt 0 ft / 0 m 201 ft / 61 m

CYJT

Details ICAO CYJT (YJT)
Name STEPHENVILLE
Region Canada
Timezone America/St_Johns (UTC-2.5)
Stats Elevation 80 ft / 24 m (AMSL)
Location 48.541811° -58.551488°
Runways 2
Magnetic Variation 19.021° W

METAR

CYJT 250400Z 06002KT 15SM BKN018 06/04 A2994 RMK SC5 SLP141

Decode

TAF

TAF AMD CYJT 250419Z 2504/2524 VRB03KT P6SM BKN020 TEMPO 2504/2514 SCT020 FM251400 29010KT P6SM FEW040 RMK NXT FCST BY 250600Z

Decode

Destination Runways

ID Width Length Bearing (true) Bearing (mag) Surface Threshold Offset Overrun Length
02 150 ft / 46 m 3,770 ft / 1,149 m 355.50° 14.52° Asphalt 0 ft / 0 m 0 ft / 0 m
09 200 ft / 61 m 9,970 ft / 3,039 m 71.61° 90.63° Asphalt 0 ft / 0 m 1,000 ft / 305 m
20 150 ft / 46 m 3,770 ft / 1,149 m 175.50° 194.52° Asphalt 0 ft / 0 m 0 ft / 0 m
27 200 ft / 61 m 9,970 ft / 3,039 m 251.64° 270.66° Asphalt 0 ft / 0 m 1,000 ft / 305 m

Popular Alternatives